Weather History for Rutland, VT

Change the Weather History Date:

Thursday, December 27, 2012

  Actual Average Record
Temperature  
Mean Temperature 26 °F -  
Max Temperature 30 °F - 54 °F (1949)
Min Temperature 21 °F - -17 °F (1989)
Degree Days  
Heating Degree Days 39    
Month to date heating degree days 876  
Since 1 July heating degree days 2230  
Cooling Degree Days 0    
Month to date cooling degree days 0  
Year to date cooling degree days 411  
Moisture  
Dew Point 22 °F    
Average Humidity 88    
Maximum Humidity 100    
Minimum Humidity 75    
Precipitation  
Precipitation 0.07 in - 1.11 in (1973)
Month to date precipitation 1.33  
Year to date precipitation 23.18  
Sea Level Pressure  
Sea Level Pressure 29.64 in    
Wind  
Wind Speed 9 mph (NNW)    
Max Wind Speed 13 mph    
Max Gust Speed 35 mph    
Visibility 3 miles    
Events      
T = Trace of Precipitation, MM = Missing Value Source: NWS Daily Summary

Daily Weather History Graph

Daily Weather History Graph

Search for Another Location

Airport:

Trip Planner

Search our weather history database for the weather conditions in past years. The results will help you decide how hot, cold, wet, or windy it might be!

Date:

Astronomy

Dec. 27, 2012 Rise Set
Actual Time 7:24 AM EST 4:22 PM EST
Civil Twilight 6:51 AM EST 4:54 PM EST
Nautical Twilight 6:15 AM EST 5:31 PM EST
Astronomical Twilight 5:40 AM EST 6:06 PM EST
Moon 4:04 PM EST (12/27) 6:32 AM EST (12/27)
Length of Visible Light 10h 03m
Length of Day
8h 58m
Full, 100% of the Moon is Illuminated
Dec 27
Full
Dec 28
Full
Jan 4
Last Quarter
Jan 11
New
Jan 18
First Quarter

Hourly Weather History & Observations

Time (EST) Temp. Windchill Dew Point Humidity Pressure Visibility Wind Dir Wind Speed Gust Speed Precip Events Conditions
12:15 AM 26.6 °F 21.2 °F 23.0 °F 86% 29.85 in 1.0 mi SSE 4.6 mph 20.7 mph N/A   Overcast
12:35 AM 26.6 °F 19.1 °F 23.0 °F 86% 29.83 in 0.8 mi ESE 6.9 mph - N/A   Overcast
12:55 AM 26.6 °F 16.2 °F 23.0 °F 86% 29.83 in 1.0 mi East 11.5 mph 16.1 mph 0.01 in   Overcast
1:35 AM 26.6 °F 17.5 °F 19.4 °F 74% 29.77 in 5.0 mi SW 9.2 mph 23.0 mph N/A   Overcast
1:55 AM 28.4 °F 24.6 °F 21.2 °F 74% 29.77 in 7.0 mi North 3.5 mph 19.6 mph N/A   Overcast
2:15 AM 28.4 °F 19.1 °F 21.2 °F 74% 29.77 in 9.0 mi ESE 10.4 mph 29.9 mph N/A   Overcast
2:35 AM 28.4 °F 16.6 °F 21.2 °F 74% 29.74 in 3.0 mi East 16.1 mph 28.8 mph N/A   Overcast
2:55 AM 28.4 °F 21.2 °F 21.2 °F 74% 29.73 in 5.0 mi ESE 6.9 mph 34.5 mph N/A   Overcast
3:15 AM 28.4 °F 22.2 °F 21.2 °F 74% 29.70 in 4.0 mi SSE 5.8 mph 28.8 mph N/A   Overcast
3:55 AM 28.4 °F 19.7 °F 23.0 °F 80% 29.66 in 2.5 mi East 9.2 mph 18.4 mph N/A   Overcast
4:55 AM 30.2 °F 24.3 °F 24.8 °F 80% 29.64 in 4.0 mi ESE 5.8 mph - N/A   Overcast
5:15 AM 30.2 °F 20.2 °F 24.8 °F 80% 29.63 in 3.0 mi East 12.7 mph 23.0 mph N/A   Overcast
5:55 AM 30.2 °F 25.4 °F 26.6 °F 86% 29.60 in 2.5 mi SE 4.6 mph - 0.01 in   Overcast
6:15 AM 30.2 °F 24.3 °F 26.6 °F 86% 29.60 in 1.2 mi NE 5.8 mph 16.1 mph N/A   Overcast
6:35 AM 30.2 °F 23.4 °F 28.4 °F 93% 29.58 in 1.8 mi NNE 6.9 mph - N/A   Overcast
6:55 AM 30.2 °F 21.9 °F 28.4 °F 93% 29.56 in 2.0 mi East 9.2 mph - 0.02 in   Overcast
7:15 AM 28.4 °F 24.6 °F 26.6 °F 93% 29.56 in 2.0 mi WNW 3.5 mph - 0.01 in   Overcast
7:35 AM 28.4 °F - 26.6 °F 93% 29.56 in 0.8 mi Calm Calm - 0.01 in   Overcast
8:15 AM 26.6 °F 19.1 °F 24.8 °F 93% 29.55 in 0.2 mi NW 6.9 mph - N/A   Overcast
8:35 AM 26.6 °F 17.5 °F 24.8 °F 93% 29.55 in 0.2 mi NW 9.2 mph - N/A   Overcast
9:35 AM 24.8 °F 14.6 °F 21.2 °F 86% 29.57 in 0.8 mi North 10.4 mph - N/A   Overcast
9:55 AM 23.0 °F 13.1 °F 21.2 °F 93% 29.56 in 0.8 mi North 9.2 mph - N/A   Overcast
10:15 AM 21.2 °F 10.1 °F 19.4 °F 93% 29.57 in 0.5 mi North 10.4 mph - N/A   Overcast
10:35 AM 23.0 °F 13.9 °F 19.4 °F 86% 29.56 in 0.8 mi North 8.1 mph - N/A   Overcast
12:15 PM 24.8 °F 14.6 °F 21.2 °F 86% 29.54 in 0.5 mi North 10.4 mph - N/A   Overcast
1:15 PM 24.8 °F 16.1 °F 21.2 °F 86% 29.53 in 0.2 mi NNW 8.1 mph 17.3 mph N/A   Overcast
1:35 PM 23.0 °F 13.1 °F 21.2 °F 93% 29.53 in 0.2 mi North 9.2 mph - N/A   Overcast
1:55 PM 23.0 °F 13.9 °F 21.2 °F 93% 29.53 in 0.2 mi NNW 8.1 mph - N/A   Overcast
2:15 PM 23.0 °F 13.9 °F 23.0 °F 100% 29.54 in 0.2 mi North 8.1 mph - N/A   Overcast
2:35 PM 23.0 °F 13.9 °F 21.2 °F 93% 29.54 in 0.5 mi NNW 8.1 mph - N/A   Overcast
3:15 PM 24.8 °F 16.9 °F 21.2 °F 86% 29.56 in 0.5 mi NNW 6.9 mph - N/A   Overcast
3:35 PM 23.0 °F 14.7 °F 21.2 °F 93% 29.56 in 0.5 mi NNW 6.9 mph - N/A   Overcast
3:55 PM 23.0 °F 15.8 °F 21.2 °F 93% 29.57 in 0.5 mi NW 5.8 mph - N/A   Overcast
4:15 PM 23.0 °F 14.7 °F 21.2 °F 93% 29.58 in 1.0 mi NW 6.9 mph - N/A   Overcast
4:35 PM 23.0 °F 18.4 °F 21.2 °F 93% 29.59 in 0.8 mi NNW 3.5 mph - N/A   Overcast
4:55 PM 23.0 °F 13.9 °F 21.2 °F 93% 29.60 in 2.0 mi NW 8.1 mph - 0.01 in   Overcast
5:15 PM 23.0 °F 13.1 °F 19.4 °F 86% 29.60 in 2.5 mi NW 9.2 mph - 0.01 in   Overcast
5:35 PM 21.2 °F 10.9 °F 19.4 °F 93% 29.62 in 2.5 mi NW 9.2 mph - 0.01 in   Overcast
5:55 PM 21.2 °F 10.9 °F 19.4 °F 93% 29.62 in 3.0 mi NW 9.2 mph - 0.02 in   Overcast
6:15 PM 21.2 °F 11.7 °F 21.2 °F 100% 29.62 in 7.0 mi NNW 8.1 mph - 0.01 in   Overcast
7:15 PM 21.2 °F 10.1 °F 19.4 °F 93% 29.64 in 8.0 mi NNW 10.4 mph - N/A   Overcast
7:55 PM 21.2 °F 9.5 °F 19.4 °F 93% 29.66 in 3.0 mi NNW 11.5 mph 18.4 mph N/A   Overcast
8:15 PM 21.2 °F 11.7 °F 19.4 °F 93% 29.67 in 6.0 mi NNW 8.1 mph - N/A   Overcast
9:15 PM 21.2 °F 8.9 °F 19.4 °F 93% 29.69 in 10.0 mi NW 12.7 mph 16.1 mph N/A   Overcast
9:35 PM 21.2 °F 9.5 °F 19.4 °F 93% 29.71 in 10.0 mi NW 11.5 mph 17.3 mph N/A   Overcast
9:55 PM 21.2 °F 10.9 °F 19.4 °F 93% 29.72 in 10.0 mi WNW 9.2 mph - N/A   Overcast
10:15 PM 21.2 °F 9.5 °F 19.4 °F 93% 29.73 in 4.0 mi NW 11.5 mph 18.4 mph N/A   Overcast
10:35 PM 21.2 °F 10.1 °F 19.4 °F 93% 29.74 in 4.0 mi NW 10.4 mph 18.4 mph N/A   Overcast
10:55 PM 21.2 °F 11.7 °F 21.2 °F 100% 29.75 in 2.5 mi NW 8.1 mph - N/A   Overcast
11:15 PM 21.2 °F 9.5 °F 21.2 °F 100% 29.75 in 3.0 mi NW 11.5 mph - N/A   Overcast
11:35 PM 21.2 °F 11.7 °F 19.4 °F 93% 29.76 in 3.0 mi NW 8.1 mph - N/A   Overcast
11:55 PM 21.2 °F 10.9 °F 17.6 °F 86% 29.75 in 3.0 mi NW 9.2 mph - N/A   Overcast